VTK605 UHMK-UHMM

Flight info

Callsign VTK605
Flight time N/A
Altitude 18000
Route KUDUN A803 OSKON A800 TITAL
Aircraft C414/L-SBDFGRY/S

Departure

Time N/A
Airport Keperveem Airport (UHMK)

Arrival

Time 2026-04-29 18:12
Airport Sokol Airport (UHMM)
Time Latitude Longitude Altitude Speed Heading
2026-04-29 17:23 62.03267 154.82268 17954 ft 238 kts 224°
2026-04-29 17:24 62.02089 154.79779 17949 ft 238 kts 224°
2026-04-29 17:24 62.00911 154.77293 17949 ft 238 kts 224°
2026-04-29 17:24 61.99730 154.74803 17952 ft 239 kts 224°
2026-04-29 17:24 61.98547 154.72310 17949 ft 239 kts 224°
2026-04-29 17:25 61.97371 154.69833 17947 ft 239 kts 224°
2026-04-29 17:25 61.96185 154.67340 17947 ft 239 kts 224°
2026-04-29 17:25 61.95005 154.64864 17948 ft 239 kts 224°
2026-04-29 17:25 61.93821 154.62381 17956 ft 239 kts 224°
2026-04-29 17:26 61.92638 154.59903 17947 ft 239 kts 224°
2026-04-29 17:26 61.91454 154.57427 17954 ft 239 kts 224°
2026-04-29 17:26 61.90270 154.54952 17947 ft 239 kts 224°
2026-04-29 17:26 61.89088 154.52486 17946 ft 239 kts 224°
2026-04-29 17:27 61.87899 154.50005 17950 ft 239 kts 224°
2026-04-29 17:27 61.86716 154.47542 17951 ft 239 kts 224°
2026-04-29 17:27 61.85532 154.45078 17960 ft 239 kts 224°
2026-04-29 17:27 61.84345 154.42613 17951 ft 239 kts 224°
2026-04-29 17:28 61.83160 154.40154 17947 ft 238 kts 224°
2026-04-29 17:28 61.81975 154.37699 17947 ft 238 kts 224°
2026-04-29 17:28 61.80793 154.35250 17947 ft 238 kts 224°
2026-04-29 17:28 61.79607 154.32798 17944 ft 238 kts 224°
2026-04-29 17:29 61.78420 154.30347 17944 ft 238 kts 224°
2026-04-29 17:29 61.77234 154.27897 17945 ft 238 kts 224°
2026-04-29 17:29 61.76047 154.25450 17944 ft 239 kts 224°
2026-04-29 17:29 61.75243 154.23795 17939 ft 239 kts 224°
2026-04-29 17:30 61.73666 154.20554 17934 ft 239 kts 224°
2026-04-29 17:30 61.72475 154.18105 17935 ft 239 kts 224°
2026-04-29 17:30 61.71282 154.15656 17934 ft 238 kts 224°
2026-04-29 17:30 61.70076 154.13187 17946 ft 238 kts 224°
2026-04-29 17:31 61.68901 154.10778 17944 ft 239 kts 224°
2026-04-29 17:31 61.67708 154.08341 17943 ft 239 kts 224°
2026-04-29 17:31 61.66515 154.05904 17944 ft 239 kts 224°
2026-04-29 17:31 61.65322 154.03470 17944 ft 239 kts 224°
2026-04-29 17:32 61.64128 154.01036 17945 ft 239 kts 224°
2026-04-29 17:32 61.62932 153.98599 17943 ft 239 kts 223°
2026-04-29 17:32 61.61736 153.96170 17937 ft 239 kts 223°
2026-04-29 17:32 61.60541 153.93746 17942 ft 239 kts 223°
2026-04-29 17:33 61.59351 153.91328 17954 ft 239 kts 223°
2026-04-29 17:33 61.58154 153.88903 17945 ft 239 kts 223°
2026-04-29 17:33 61.56957 153.86481 17946 ft 239 kts 223°
2026-04-29 17:33 61.55760 153.84062 17946 ft 239 kts 223°
2026-04-29 17:34 61.54565 153.81646 17943 ft 238 kts 223°
2026-04-29 17:34 61.53353 153.79204 17943 ft 239 kts 223°
2026-04-29 17:34 61.52171 153.76824 17944 ft 239 kts 223°
2026-04-29 17:34 61.50975 153.74415 17954 ft 239 kts 223°
2026-04-29 17:35 61.49363 153.71172 17949 ft 240 kts 223°
2026-04-29 17:35 61.47364 153.67161 17948 ft 240 kts 223°
2026-04-29 17:35 61.46157 153.64743 17950 ft 240 kts 223°
2026-04-29 17:36 61.44939 153.62307 17953 ft 239 kts 223°
2026-04-29 17:36 61.43753 153.59936 17957 ft 239 kts 223°
2026-04-29 17:36 61.42547 153.57526 17956 ft 239 kts 223°
2026-04-29 17:36 61.41344 153.55126 17958 ft 239 kts 223°
2026-04-29 17:37 61.40138 153.52726 17954 ft 239 kts 223°
2026-04-29 17:37 61.38933 153.50327 17953 ft 240 kts 223°
2026-04-29 17:37 61.37725 153.47924 17951 ft 240 kts 223°
2026-04-29 17:37 61.36518 153.45528 17952 ft 240 kts 223°
2026-04-29 17:38 61.35308 153.43127 17956 ft 240 kts 223°
2026-04-29 17:38 61.34100 153.40733 17955 ft 240 kts 223°
2026-04-29 17:38 61.32890 153.38338 17956 ft 240 kts 223°
2026-04-29 17:38 61.31680 153.35947 17953 ft 240 kts 223°
2026-04-29 17:39 61.30468 153.33552 17960 ft 240 kts 223°
2026-04-29 17:39 61.29259 153.31169 17959 ft 240 kts 223°
2026-04-29 17:39 61.28049 153.28785 17962 ft 239 kts 223°
2026-04-29 17:39 61.26841 153.26405 17961 ft 239 kts 223°
2026-04-29 17:40 61.25627 153.24021 17956 ft 240 kts 223°
2026-04-29 17:40 61.24417 153.21647 17956 ft 240 kts 223°
2026-04-29 17:40 61.23205 153.19268 17956 ft 239 kts 223°
2026-04-29 17:40 61.21992 153.16892 17957 ft 240 kts 223°
2026-04-29 17:41 61.20779 153.14517 17960 ft 239 kts 223°
2026-04-29 17:41 61.19567 153.12149 17957 ft 240 kts 223°
2026-04-29 17:41 61.18357 153.09785 17958 ft 240 kts 223°
2026-04-29 17:41 61.17143 153.07416 17951 ft 239 kts 223°
2026-04-29 17:42 61.15927 153.05049 17953 ft 239 kts 223°
2026-04-29 17:42 61.14711 153.02683 17953 ft 239 kts 223°
2026-04-29 17:42 61.13497 153.00322 17953 ft 239 kts 223°
2026-04-29 17:42 61.12297 152.97992 17954 ft 239 kts 223°
2026-04-29 17:43 61.11068 152.95607 17951 ft 240 kts 223°
2026-04-29 17:43 61.10261 152.94043 17950 ft 240 kts 223°
2026-04-29 17:43 61.08648 152.90921 17951 ft 239 kts 223°
2026-04-29 17:43 61.07415 152.88536 17950 ft 240 kts 222°
2026-04-29 17:44 61.06200 152.86190 17957 ft 239 kts 222°
2026-04-29 17:44 61.05394 152.84635 17957 ft 240 kts 222°
2026-04-29 17:44 61.04174 152.82284 17957 ft 240 kts 222°
2026-04-29 17:44 61.02954 152.79933 17957 ft 240 kts 222°
2026-04-29 17:45 61.01732 152.77583 17951 ft 240 kts 223°
2026-04-29 17:45 61.00510 152.75236 17951 ft 240 kts 223°
2026-04-29 17:45 60.99289 152.72892 17950 ft 240 kts 222°
2026-04-29 17:45 60.98064 152.70549 17950 ft 241 kts 222°
2026-04-29 17:46 60.96836 152.68197 17951 ft 241 kts 223°
2026-04-29 17:46 60.95612 152.65840 17955 ft 240 kts 223°
2026-04-29 17:46 60.94370 152.63474 17956 ft 241 kts 222°
2026-04-29 17:46 60.93156 152.61163 17951 ft 241 kts 222°
2026-04-29 17:47 60.91923 152.58816 17949 ft 240 kts 222°
2026-04-29 17:47 60.90695 152.56473 17948 ft 241 kts 222°
2026-04-29 17:47 60.89466 152.54130 17947 ft 241 kts 222°
2026-04-29 17:47 60.88239 152.51800 17948 ft 239 kts 222°
2026-04-29 17:48 60.87015 152.49480 17950 ft 240 kts 222°
2026-04-29 17:48 60.85785 152.47158 17953 ft 240 kts 222°
2026-04-29 17:48 60.84563 152.44838 17951 ft 240 kts 222°
2026-04-29 17:48 60.83335 152.42508 17954 ft 240 kts 222°
2026-04-29 17:49 60.82103 152.40174 17959 ft 242 kts 222°
2026-04-29 17:49 60.80854 152.37806 17954 ft 241 kts 223°
2026-04-29 17:49 60.79634 152.35462 17957 ft 241 kts 223°
2026-04-29 17:49 60.78413 152.33108 17948 ft 241 kts 223°
2026-04-29 17:50 60.77185 152.30761 17943 ft 241 kts 222°
2026-04-29 17:50 60.75957 152.28424 17945 ft 241 kts 222°
2026-04-29 17:50 60.74735 152.26090 17945 ft 240 kts 222°
2026-04-29 17:50 60.73511 152.23756 17943 ft 241 kts 222°
2026-04-29 17:51 60.72287 152.21426 17935 ft 241 kts 222°
2026-04-29 17:51 60.71061 152.19093 17937 ft 241 kts 222°
2026-04-29 17:51 60.69830 152.16756 17932 ft 241 kts 222°
2026-04-29 17:51 60.68605 152.14432 17933 ft 240 kts 222°
2026-04-29 17:52 60.67380 152.12111 17940 ft 240 kts 222°
2026-04-29 17:52 60.66566 152.10569 17942 ft 241 kts 222°
2026-04-29 17:52 60.64903 152.07423 17943 ft 242 kts 222°
2026-04-29 17:52 60.63670 152.05093 17944 ft 242 kts 222°
2026-04-29 17:53 60.62436 152.02764 17942 ft 242 kts 222°
2026-04-29 17:53 60.61203 152.00437 17942 ft 242 kts 222°
2026-04-29 17:53 60.59966 151.98109 17943 ft 242 kts 222°
2026-04-29 17:53 60.58728 151.95783 17940 ft 242 kts 222°
2026-04-29 17:54 60.57494 151.93463 17945 ft 242 kts 222°
2026-04-29 17:54 60.56262 151.91148 17945 ft 241 kts 222°
2026-04-29 17:54 60.55026 151.88831 17938 ft 242 kts 222°
2026-04-29 17:54 60.53777 151.86487 17942 ft 241 kts 222°
2026-04-29 17:55 60.52542 151.84185 17931 ft 241 kts 222°
2026-04-29 17:55 60.51322 151.81903 17935 ft 241 kts 222°
2026-04-29 17:55 60.50086 151.79594 17931 ft 241 kts 222°
2026-04-29 17:55 60.48854 151.77297 17930 ft 240 kts 222°
2026-04-29 17:56 60.47622 151.75003 17927 ft 241 kts 222°
2026-04-29 17:56 60.46383 151.72698 17927 ft 241 kts 222°
2026-04-29 17:56 60.45149 151.70402 17923 ft 241 kts 222°
2026-04-29 17:56 60.43913 151.68110 17925 ft 241 kts 222°
2026-04-29 17:57 60.42675 151.65809 17918 ft 241 kts 222°
2026-04-29 17:57 60.41437 151.63517 17916 ft 241 kts 222°
2026-04-29 17:57 60.40199 151.61228 17918 ft 241 kts 222°
2026-04-29 17:57 60.39382 151.59717 17917 ft 241 kts 221°
2026-04-29 17:58 60.37530 151.57242 17923 ft 239 kts 199°
2026-04-29 17:58 60.35957 151.56186 17922 ft 238 kts 195°
2026-04-29 17:58 60.34386 151.55130 17924 ft 239 kts 196°
2026-04-29 17:58 60.32805 151.54065 17929 ft 239 kts 196°
2026-04-29 17:59 60.31219 151.53002 17922 ft 240 kts 196°
2026-04-29 17:59 60.29633 151.51947 17909 ft 240 kts 196°
2026-04-29 17:59 60.28050 151.50887 17862 ft 241 kts 196°
2026-04-29 17:59 60.26478 151.49826 17433 ft 237 kts 196°
2026-04-29 18:00 60.24914 151.48784 16950 ft 237 kts 196°
2026-04-29 18:00 60.23347 151.47743 16454 ft 237 kts 196°
2026-04-29 18:00 60.21785 151.46707 15971 ft 236 kts 196°
2026-04-29 18:00 60.20223 151.45669 15484 ft 235 kts 196°
2026-04-29 18:01 60.18678 151.44632 15003 ft 234 kts 197°
2026-04-29 18:01 60.17135 151.43608 14522 ft 233 kts 196°
2026-04-29 18:01 60.15598 151.42599 14038 ft 231 kts 196°
2026-04-29 18:01 60.14076 151.41591 13552 ft 230 kts 197°
2026-04-29 18:02 60.12567 151.40586 13059 ft 227 kts 197°
2026-04-29 18:02 60.11077 151.39598 12594 ft 224 kts 197°
2026-04-29 18:02 60.09603 151.38629 12143 ft 222 kts 196°
2026-04-29 18:02 60.08143 151.37670 11684 ft 220 kts 196°
2026-04-29 18:03 60.06694 151.36716 11241 ft 219 kts 197°
2026-04-29 18:03 60.05256 151.35774 10808 ft 216 kts 196°
2026-04-29 18:03 60.03821 151.34815 10352 ft 217 kts 197°
2026-04-29 18:03 60.02408 151.33754 9905 ft 217 kts 201°
2026-04-29 18:04 60.01017 151.32592 9429 ft 216 kts 201°
2026-04-29 18:04 59.99635 151.31458 8986 ft 214 kts 201°
2026-04-29 18:04 59.98271 151.30340 8550 ft 211 kts 201°
2026-04-29 18:04 59.96916 151.29219 8112 ft 210 kts 201°
2026-04-29 18:05 59.95565 151.28102 7678 ft 209 kts 201°
2026-04-29 18:05 59.94225 151.26993 7249 ft 208 kts 204°
2026-04-29 18:05 59.92919 151.25812 6836 ft 206 kts 202°
2026-04-29 18:05 59.91614 151.24641 6423 ft 205 kts 211°
2026-04-29 18:06 59.90579 151.22770 6088 ft 201 kts 233°
2026-04-29 18:06 59.89951 151.20312 5676 ft 199 kts 255°
2026-04-29 18:06 59.89796 151.17598 5265 ft 197 kts 275°
2026-04-29 18:06 59.89886 151.14883 4858 ft 196 kts 275°
2026-04-29 18:07 59.89961 151.12187 4451 ft 194 kts 275°
2026-04-29 18:07 59.90041 151.09518 4042 ft 192 kts 275°
2026-04-29 18:07 59.90119 151.06866 3648 ft 191 kts 275°
2026-04-29 18:07 59.90193 151.04313 3578 ft 177 kts 275°
2026-04-29 18:08 59.90264 151.01890 3383 ft 175 kts 275°
2026-04-29 18:08 59.90336 150.99461 3139 ft 176 kts 274°
2026-04-29 18:08 59.90406 150.97030 2888 ft 174 kts 274°
2026-04-29 18:08 59.90472 150.94673 2646 ft 167 kts 275°
2026-04-29 18:09 59.90537 150.92385 2405 ft 163 kts 275°
2026-04-29 18:09 59.90600 150.90151 2142 ft 161 kts 274°
2026-04-29 18:09 59.90663 150.87910 1888 ft 159 kts 274°
2026-04-29 18:09 59.90723 150.85753 1649 ft 147 kts 274°
2026-04-29 18:10 59.90774 150.83864 1446 ft 129 kts 274°
2026-04-29 18:10 59.90820 150.82168 1284 ft 118 kts 274°
2026-04-29 18:10 59.90864 150.80560 1132 ft 114 kts 274°
2026-04-29 18:10 59.90907 150.78966 986 ft 114 kts 273°
2026-04-29 18:11 59.90943 150.77418 870 ft 111 kts 273°
2026-04-29 18:11 59.90986 150.75896 699 ft 110 kts 273°
2026-04-29 18:11 59.91015 150.74896 613 ft 107 kts 274°
2026-04-29 18:11 59.91058 150.73513 578 ft 88 kts 273°
2026-04-29 18:12 59.91074 150.72880 579 ft 18 kts 271°
2026-04-29 18:12 59.91090 150.72693 579 ft 9 kts 311°
2026-04-29 18:12 59.91152 150.72674 578 ft 10 kts
2026-04-29 18:12 59.91222 150.72684 577 ft 10 kts
2026-04-29 18:13 59.91288 150.72694 577 ft 9 kts 27°
2026-04-29 18:13 59.91321 150.72773 577 ft 4 kts
2026-04-29 18:13 59.91349 150.72774 577 ft 4 kts
2026-04-29 18:13 59.91361 150.72801 577 ft 3 kts 97°
2026-04-29 18:14 59.91357 150.72872 577 ft 3 kts 126°
2026-04-29 18:14 59.91348 150.72876 577 ft 0 kts 183°
2026-04-29 18:24 59.91307 150.72762 577 ft 20 kts 248°
2026-04-29 18:25 59.91209 150.72685 577 ft 15 kts 181°
2026-04-29 18:25 59.91108 150.72674 579 ft 13 kts 174°
2026-04-29 18:25 59.91077 150.72766 579 ft 5 kts 95°
2026-04-29 18:25 59.91075 150.72865 579 ft 21 kts 91°
2026-04-29 18:26 59.91059 150.73537 578 ft 76 kts 94°
2026-04-29 18:26 59.91033 150.74836 641 ft 104 kts 90°
2026-04-29 18:26 59.91017 150.76337 809 ft 114 kts 94°
2026-04-29 18:26 59.90960 150.77962 997 ft 120 kts 94°
2026-04-29 18:27 59.90899 150.79657 1181 ft 125 kts 94°
2026-04-29 18:27 59.90835 150.81405 1364 ft 127 kts 94°
2026-04-29 18:27 59.90764 150.83177 1553 ft 129 kts 94°
2026-04-29 18:27 59.90689 150.84975 1754 ft 134 kts 94°
2026-04-29 18:28 59.90603 150.86935 1974 ft 149 kts 94°
2026-04-29 18:28 59.90506 150.89062 2197 ft 159 kts 95°
2026-04-29 18:28 59.90395 150.91276 2514 ft 161 kts 94°
2026-04-29 18:28 59.90276 150.93501 2821 ft 161 kts 97°
2026-04-29 18:29 59.89736 150.95432 3109 ft 166 kts 143°
2026-04-29 18:29 59.89032 150.95978 3311 ft 166 kts 174°
2026-04-29 18:29 59.87475 150.95953 3706 ft 168 kts 182°
2026-04-29 18:29 59.86297 150.95901 4000 ft 170 kts 182°
2026-04-29 18:30 59.85118 150.95842 4326 ft 170 kts 182°
2026-04-29 18:30 59.83937 150.95775 4642 ft 170 kts 182°
2026-04-29 18:30 59.82765 150.95454 4920 ft 171 kts 206°
2026-04-29 18:30 59.82000 150.93752 5212 ft 168 kts 254°
2026-04-29 18:31 59.82076 150.91494 5506 ft 166 kts 291°
2026-04-29 18:31 59.82372 150.89265 5795 ft 169 kts 276°
2026-04-29 18:31 59.82379 150.86892 5993 ft 178 kts 270°
2026-04-29 18:31 59.82333 150.84344 6002 ft 191 kts 269°
2026-04-29 18:32 59.82285 150.81649 6003 ft 199 kts 269°
2026-04-29 18:32 59.82185 150.76049 6005 ft 204 kts 269°
2026-04-29 18:32 59.82134 150.73231 6001 ft 204 kts 269°
2026-04-29 18:33 59.82081 150.70417 6004 ft 204 kts 269°
2026-04-29 18:33 59.82027 150.67596 6002 ft 204 kts 269°
2026-04-29 18:33 59.81976 150.64775 6001 ft 204 kts 269°
2026-04-29 18:33 59.81924 150.62014 6002 ft 203 kts 269°
2026-04-29 18:34 59.81870 150.59149 5998 ft 204 kts 269°
2026-04-29 18:34 59.81833 150.57282 5999 ft 205 kts 269°
2026-04-29 18:34 59.81759 150.53495 5998 ft 205 kts 269°
2026-04-29 18:34 59.81703 150.50662 5997 ft 205 kts 269°
2026-04-29 18:35 59.81665 150.48790 5996 ft 205 kts 269°
2026-04-29 18:35 59.81589 150.45049 5993 ft 204 kts 269°
2026-04-29 18:35 59.81532 150.42209 5993 ft 203 kts 269°
2026-04-29 18:35 59.81474 150.39399 5992 ft 203 kts 269°
2026-04-29 18:36 59.81419 150.36641 5992 ft 202 kts 269°
2026-04-29 18:36 59.81524 150.33884 5991 ft 200 kts 287°
2026-04-29 18:36 59.82134 150.31420 5995 ft 199 kts 308°
2026-04-29 18:36 59.83138 150.29575 5997 ft 197 kts 329°
2026-04-29 18:37 59.84406 150.28577 5998 ft 197 kts 349°
2026-04-29 18:37 59.85770 150.28496 5999 ft 197 kts
2026-04-29 18:37 59.87136 150.28627 5933 ft 198 kts
2026-04-29 18:37 59.88509 150.28748 5585 ft 197 kts
2026-04-29 18:38 59.89840 150.29260 5225 ft 196 kts 22°
2026-04-29 18:38 59.90974 150.30763 4862 ft 197 kts 44°
2026-04-29 18:38 59.91743 150.33030 4490 ft 199 kts 66°
2026-04-29 18:38 59.92018 150.35720 4120 ft 199 kts 89°
2026-04-29 18:39 59.91949 150.38476 3754 ft 198 kts 92°
2026-04-29 18:39 59.91885 150.41208 3441 ft 195 kts 91°
2026-04-29 18:39 59.91819 150.43870 3184 ft 190 kts 91°
2026-04-29 18:39 59.91754 150.46472 2919 ft 186 kts 91°
2026-04-29 18:40 59.91690 150.49031 2660 ft 184 kts 92°
2026-04-29 18:40 59.91626 150.51546 2396 ft 178 kts 91°
2026-04-29 18:40 59.91567 150.53975 2112 ft 173 kts 92°
2026-04-29 18:40 59.91507 150.56333 1848 ft 168 kts 92°
2026-04-29 18:41 59.91354 150.62358 1228 ft 123 kts 93°
2026-04-29 18:41 59.91313 150.63978 1078 ft 113 kts 92°
2026-04-29 18:42 59.91293 150.65513 938 ft 108 kts 90°
2026-04-29 18:42 59.91245 150.66979 810 ft 104 kts 96°
2026-04-29 18:42 59.91194 150.68403 681 ft 103 kts 93°
2026-04-29 18:42 59.91159 150.69818 588 ft 100 kts 92°
2026-04-29 18:43 59.91128 150.71096 580 ft 82 kts 91°
2026-04-29 18:43 59.91100 150.71928 575 ft 39 kts 92°
2026-04-29 18:43 59.91088 150.72383 575 ft 21 kts 90°
2026-04-29 18:43 59.91092 150.72641 579 ft 16 kts 47°
2026-04-29 18:44 59.91188 150.72683 577 ft 13 kts
2026-04-29 18:44 59.91280 150.72695 577 ft 13 kts 20°
2026-04-29 18:44 59.91321 150.72832 577 ft 8 kts 68°
2026-04-29 18:44 59.91341 150.72875 577 ft 2 kts
2026-04-29 18:45 59.91352 150.72876 577 ft 0 kts